• In Hungary
  • List of Countries
  • For 7 days
  • Water Temperature
  • Satellite Maps
  • Weather Map
  • News
  • Weather Widgets
  • user-avatar
    Login

    Hourly Weather Radysy

    Today, 22 October, Sunday

    Time Temperature Precipitation Wind Pressure Humidity
    00:00 +5°C° 0 mm 4 mps 748 mmHg 89%
    01:00 +5°C° 0 mm 4 mps 748 mmHg 88%
    02:00 +5°C° 0 mm 4 mps 748 mmHg 88%
    03:00 +4°C° 0 mm 4 mps 748 mmHg 88%
    04:00 +4°C° 0 mm 4 mps 748 mmHg 88%
    05:00 +4°C° 0 mm 4 mps 748 mmHg 89%
    06:00 +4°C° 0 mm 4 mps 748 mmHg 89%
    07:00 +3°C° 0 mm 4 mps 748 mmHg 89%
    08:00 +3°C° 0 mm 5 mps 748 mmHg 87%
    09:00 +5°C° 0 mm 5 mps 748 mmHg 84%
    10:00 +5°C° 0 mm 5 mps 748 mmHg 81%
    11:00 +5°C° 0.1 mm 5 mps 747 mmHg 80%
    12:00 +6°C° 0.1 mm 5 mps 747 mmHg 79%
    13:00 +6°C° 0.1 mm 4 mps 747 mmHg 78%
    14:00 +6°C° 0 mm 4 mps 746 mmHg 79%
    15:00 +6°C° 0 mm 4 mps 746 mmHg 80%
    16:00 +6°C° 0 mm 4 mps 746 mmHg 81%
    17:00 +6°C° 0.2 mm 4 mps 746 mmHg 82%
    18:00 +6°C° 0.2 mm 4 mps 745 mmHg 84%
    19:00 +6°C° 0.2 mm 4 mps 745 mmHg 85%
    20:00 +6°C° 0.4 mm 4 mps 745 mmHg 86%
    21:00 +5°C° 0.4 mm 4 mps 745 mmHg 87%
    22:00 +5°C° 0.4 mm 4 mps 745 mmHg 88%
    23:00 +5°C° 0.2 mm 4 mps 745 mmHg 89%

    Tomorrow, 23 October, Monday

    Time Temperature Precipitation Wind Pressure Humidity
    00:00 +5°C° 0.2 mm 4 mps 744 mmHg 89%
    01:00 +5°C° 0.2 mm 4 mps 744 mmHg 89%
    02:00 +5°C° 0.2 mm 4 mps 744 mmHg 90%
    03:00 +5°C° 0.2 mm 4 mps 744 mmHg 90%
    04:00 +5°C° 0.2 mm 3 mps 744 mmHg 90%
    05:00 +5°C° 0.4 mm 3 mps 744 mmHg 91%
    06:00 +5°C° 0.4 mm 3 mps 744 mmHg 91%
    07:00 +5°C° 0.4 mm 3 mps 744 mmHg 91%
    08:00 +5°C° 0.2 mm 3 mps 744 mmHg 90%
    09:00 +5°C° 0.2 mm 3 mps 744 mmHg 88%
    10:00 +7°C° 0.2 mm 3 mps 744 mmHg 87%
    11:00 +7°C° 0.3 mm 3 mps 745 mmHg 87%
    12:00 +7°C° 0.3 mm 3 mps 745 mmHg 86%
    13:00 +7°C° 0.3 mm 3 mps 745 mmHg 86%
    14:00 +7°C° 0.3 mm 3 mps 745 mmHg 87%
    15:00 +5°C° 0.3 mm 3 mps 746 mmHg 88%
    16:00 +5°C° 0.3 mm 3 mps 746 mmHg 89%
    17:00 +5°C° 0.3 mm 3 mps 746 mmHg 89%
    18:00 +5°C° 0.3 mm 3 mps 747 mmHg 89%
    19:00 +5°C° 0.3 mm 3 mps 747 mmHg 89%
    20:00 +4°C° 0.1 mm 3 mps 748 mmHg 88%
    21:00 +4°C° 0.1 mm 3 mps 748 mmHg 87%
    22:00 +4°C° 0.1 mm 3 mps 748 mmHg 87%
    23:00 +4°C° 0.1 mm 3 mps 749 mmHg 86%

    Day after tomorrow, 24 October, Tuesday

    Time Temperature Precipitation Wind Pressure Humidity
    00:00 +4°C° 0.1 mm 3 mps 749 mmHg 86%
    01:00 +4°C° 0.1 mm 3 mps 750 mmHg 85%
    02:00 +3°C° 0.1 mm 3 mps 750 mmHg 85%
    03:00 +3°C° 0.1 mm 3 mps 750 mmHg 85%
    04:00 +3°C° 0.1 mm 3 mps 750 mmHg 85%
    05:00 +3°C° 0 mm 3 mps 751 mmHg 85%
    06:00 +2°C° 0 mm 3 mps 751 mmHg 85%
    07:00 +2°C° 0 mm 3 mps 752 mmHg 85%
    08:00 +3°C° 0 mm 3 mps 752 mmHg 83%
    09:00 +3°C° 0 mm 3 mps 753 mmHg 81%
    10:00 +3°C° 0 mm 3 mps 753 mmHg 79%
    11:00 +4°C° 0 mm 3 mps 753 mmHg 77%
    12:00 +5°C° 0 mm 2 mps 753 mmHg 75%
    13:00 +6°C° 0 mm 2 mps 753 mmHg 72%
    14:00 +6°C° 0 mm 2 mps 754 mmHg 74%
    15:00 +6°C° 0 mm 2 mps 754 mmHg 75%
    16:00 +6°C° 0 mm 2 mps 754 mmHg 76%
    17:00 +5°C° 0 mm 2 mps 754 mmHg 77%
    18:00 +5°C° 0 mm 2 mps 754 mmHg 77%
    19:00 +5°C° 0 mm 2 mps 755 mmHg 78%
    20:00 +5°C° 0 mm 2 mps 755 mmHg 78%
    21:00 +4°C° 0 mm 2 mps 755 mmHg 79%
    22:00 +3°C° 0 mm 3 mps 755 mmHg 79%
    23:00 +4°C° 0 mm 2 mps 755 mmHg 80%

    25 October, Wednesday

    Time Temperature Precipitation Wind Pressure Humidity
    00:00 +3°C° 0 mm 2 mps 755 mmHg 82%
    01:00 +3°C° 0 mm 2 mps 755 mmHg 83%
    02:00 +3°C° 0 mm 2 mps 755 mmHg 83%
    03:00 +3°C° 0 mm 2 mps 755 mmHg 82%
    04:00 +3°C° 0 mm 2 mps 754 mmHg 82%
    05:00 +2°C° 0 mm 3 mps 754 mmHg 81%
    06:00 +2°C° 0 mm 3 mps 754 mmHg 80%
    07:00 +1°C° 0 mm 4 mps 754 mmHg 79%
    08:00 +3°C° 0.1 mm 4 mps 754 mmHg 77%
    09:00 +3°C° 0.1 mm 5 mps 754 mmHg 75%
    10:00 +3°C° 0.1 mm 5 mps 754 mmHg 73%
    11:00 +5°C° 0.2 mm 5 mps 753 mmHg 72%
    12:00 +5°C° 0.2 mm 5 mps 753 mmHg 71%
    13:00 +5°C° 0.2 mm 6 mps 753 mmHg 71%
    14:00 +4°C° 0.7 mm 6 mps 752 mmHg 73%
    15:00 +4°C° 0.7 mm 6 mps 751 mmHg 76%
    16:00 +4°C° 0.7 mm 6 mps 751 mmHg 79%
    17:00 +4°C° 0.3 mm 6 mps 750 mmHg 80%
    18:00 +4°C° 0.3 mm 7 mps 750 mmHg 81%
    19:00 +4°C° 0.3 mm 7 mps 749 mmHg 83%
    20:00 +4°C° 0.8 mm 7 mps 748 mmHg 84%
    21:00 +5°C° 0.8 mm 7 mps 748 mmHg 86%
    22:00 +5°C° 0.8 mm 7 mps 747 mmHg 88%
    23:00 +6°C° 0.4 mm 7 mps 746 mmHg 90%

    26 October, Thursday

    Time Temperature Precipitation Wind Pressure Humidity
    00:00 +8°C° 0.4 mm 6 mps 746 mmHg 92%
    01:00 +9°C° 0.4 mm 6 mps 745 mmHg 94%
    02:00 +9°C° 0.1 mm 6 mps 745 mmHg 92%
    03:00 +9°C° 0.1 mm 6 mps 745 mmHg 89%
    04:00 +8°C° 0.1 mm 6 mps 745 mmHg 87%
    05:00 +8°C° 0 mm 6 mps 745 mmHg 86%
    06:00 +8°C° 0 mm 5 mps 746 mmHg 86%
    07:00 +8°C° 0 mm 5 mps 746 mmHg 85%
    08:00 +8°C° 0.1 mm 5 mps 746 mmHg 84%
    09:00 +9°C° 0.1 mm 6 mps 746 mmHg 82%
    10:00 +9°C° 0.1 mm 7 mps 747 mmHg 80%
    11:00 +9°C° 0.1 mm 7 mps 747 mmHg 79%
    12:00 +9°C° 0.1 mm 7 mps 746 mmHg 78%
    13:00 +9°C° 0.1 mm 7 mps 746 mmHg 77%
    14:00 +9°C° 0.1 mm 6 mps 746 mmHg 79%
    15:00 +9°C° 0.1 mm 6 mps 746 mmHg 80%
    16:00 +9°C° 0.1 mm 5 mps 746 mmHg 81%
    17:00 +9°C° 0.1 mm 6 mps 745 mmHg 83%
    18:00 +8°C° 0.1 mm 6 mps 745 mmHg 84%
    19:00 +8°C° 0.1 mm 6 mps 745 mmHg 85%
    20:00 +8°C° 0 mm 6 mps 745 mmHg 86%
    21:00 +8°C° 0 mm 6 mps 745 mmHg 87%
    22:00 +7°C° 0 mm 6 mps 744 mmHg 88%
    23:00 +7°C° 0 mm 5 mps 744 mmHg 88%

    27 October, Friday

    Time Temperature Precipitation Wind Pressure Humidity
    00:00 +7°C° 0 mm 5 mps 744 mmHg 88%
    01:00 +7°C° 0 mm 5 mps 743 mmHg 88%
    02:00 +7°C° 0 mm 5 mps 743 mmHg 88%
    03:00 +7°C° 0 mm 5 mps 743 mmHg 88%
    04:00 +7°C° 0 mm 5 mps 742 mmHg 88%
    05:00 +7°C° 0 mm 5 mps 742 mmHg 88%
    06:00 +7°C° 0 mm 5 mps 742 mmHg 88%
    07:00 +7°C° 0 mm 5 mps 741 mmHg 88%
    08:00 +7°C° 0.1 mm 5 mps 741 mmHg 86%
    09:00 +8°C° 0.1 mm 6 mps 741 mmHg 84%
    10:00 +8°C° 0.1 mm 6 mps 741 mmHg 83%
    11:00 +8°C° 0.2 mm 6 mps 740 mmHg 81%
    12:00 +9°C° 0.2 mm 6 mps 739 mmHg 80%
    13:00 +9°C° 0.2 mm 6 mps 739 mmHg 78%
    14:00 +9°C° 0.3 mm 6 mps 738 mmHg 81%
    15:00 +8°C° 0.3 mm 5 mps 738 mmHg 83%
    16:00 +8°C° 0.3 mm 5 mps 737 mmHg 85%
    17:00 +7°C° 0.4 mm 4 mps 736 mmHg 88%
    18:00 +8°C° 0.4 mm 3 mps 735 mmHg 91%
    19:00 +7°C° 0.4 mm 3 mps 735 mmHg 94%
    20:00 +7°C° 0.5 mm 3 mps 734 mmHg 94%
    21:00 +7°C° 0.5 mm 3 mps 734 mmHg 95%
    22:00 +7°C° 0.5 mm 2 mps 733 mmHg 95%
    23:00 +7°C° 0.3 mm 3 mps 733 mmHg 94%
    Show more